Wetterdaten: Samstag, 27.06.2015
Datum Zeit Temp. A. Feuchte A. Luftdruck Regen Wind Richtung Richtung Sonnenschein ET UV Solar Taupunkt Windchill Windben Empfang
27.06.2015 00:00 17,4 C 69 % 1018,0 hPa 0,0 l/m 0,0 km/h (0 Bft) NO 42 0 min 0,000 mm 0,0 UV-I 0 W/m 11,7 C 17,4 C 0,0 km/h (0 Bft) 0,00 %
27.06.2015 00:05 17,3 C 69 % 1018,0 hPa 0,0 l/m 0,0 km/h (0 Bft) NO 45 0 min 0,000 mm 0,0 UV-I 0 W/m 11,6 C 17,3 C 0,0 km/h (0 Bft) 0,00 %
27.06.2015 00:10 17,3 C 69 % 1018,0 hPa 0,0 l/m 0,0 km/h (0 Bft) NO 44 0 min 0,000 mm 0,0 UV-I 0 W/m 11,6 C 17,3 C 0,0 km/h (0 Bft) 0,00 %
27.06.2015 00:15 17,2 C 70 % 1017,9 hPa 0,0 l/m 0,0 km/h (0 Bft) NO 47 0 min 0,000 mm 0,0 UV-I 0 W/m 11,7 C 17,2 C 0,0 km/h (0 Bft) 0,00 %
27.06.2015 00:20 17,2 C 70 % 1018,0 hPa 0,0 l/m 0,0 km/h (0 Bft) NO 43 0 min 0,000 mm 0,0 UV-I 0 W/m 11,7 C 17,2 C 0,0 km/h (0 Bft) 0,00 %
27.06.2015 00:25 17,1 C 71 % 1018,0 hPa 0,0 l/m 0,0 km/h (0 Bft) NO 44 0 min 0,000 mm 0,0 UV-I 0 W/m 11,8 C 17,1 C 0,0 km/h (0 Bft) 0,00 %
27.06.2015 00:30 17,1 C 71 % 1018,0 hPa 0,0 l/m 0,0 km/h (0 Bft) NO 44 0 min 0,000 mm 0,0 UV-I 0 W/m 11,8 C 17,1 C 0,0 km/h (0 Bft) 0,00 %
27.06.2015 00:35 17,0 C 71 % 1017,9 hPa 0,0 l/m 0,0 km/h (0 Bft) NO 47 0 min 0,000 mm 0,0 UV-I 0 W/m 11,7 C 17,0 C 0,0 km/h (0 Bft) 0,00 %
27.06.2015 00:40 17,0 C 72 % 1017,8 hPa 0,0 l/m 0,0 km/h (0 Bft) NO 42 0 min 0,000 mm 0,0 UV-I 0 W/m 11,9 C 17,0 C 0,0 km/h (0 Bft) 0,00 %
27.06.2015 00:45 16,9 C 71 % 1017,8 hPa 0,0 l/m 0,0 km/h (0 Bft) NO 40 0 min 0,000 mm 0,0 UV-I 0 W/m 11,6 C 16,9 C 0,0 km/h (0 Bft) 0,00 %
27.06.2015 00:50 16,9 C 71 % 1017,9 hPa 0,0 l/m 0,0 km/h (0 Bft) NO 44 0 min 0,000 mm 0,0 UV-I 0 W/m 11,6 C 16,9 C 0,0 km/h (0 Bft) 0,00 %
27.06.2015 00:55 16,9 C 71 % 1017,7 hPa 0,0 l/m 0,0 km/h (0 Bft) NO 47 0 min 0,000 mm 0,0 UV-I 0 W/m 11,6 C 16,9 C 0,0 km/h (0 Bft) 0,00 %
27.06.2015 01:00 16,9 C 71 % 1017,7 hPa 0,0 l/m 0,0 km/h (0 Bft) NO 44 0 min 0,000 mm 0,0 UV-I 0 W/m 11,6 C 16,9 C 0,0 km/h (0 Bft) 0,00 %
27.06.2015 01:05 16,8 C 72 % 1017,8 hPa 0,0 l/m 0,0 km/h (0 Bft) NO 43 0 min 0,000 mm 0,0 UV-I 0 W/m 11,7 C 16,8 C 0,0 km/h (0 Bft) 0,00 %
27.06.2015 01:10 16,8 C 72 % 1017,8 hPa 0,0 l/m 0,0 km/h (0 Bft) NO 45 0 min 0,000 mm 0,0 UV-I 0 W/m 11,7 C 16,8 C 0,0 km/h (0 Bft) 0,00 %
27.06.2015 01:15 16,7 C 72 % 1017,6 hPa 0,0 l/m 0,0 km/h (0 Bft) NO 43 0 min 0,000 mm 0,0 UV-I 0 W/m 11,6 C 16,7 C 0,0 km/h (0 Bft) 0,00 %
27.06.2015 01:20 16,7 C 72 % 1017,5 hPa 0,0 l/m 0,0 km/h (0 Bft) NO 43 0 min 0,000 mm 0,0 UV-I 0 W/m 11,6 C 16,7 C 0,0 km/h (0 Bft) 0,00 %
27.06.2015 01:25 16,7 C 72 % 1017,6 hPa 0,0 l/m 0,0 km/h (0 Bft) NO 39 0 min 0,000 mm 0,0 UV-I 0 W/m 11,6 C 16,7 C 0,0 km/h (0 Bft) 0,00 %
27.06.2015 01:30 16,6 C 72 % 1017,5 hPa 0,0 l/m 0,0 km/h (0 Bft) NO 47 0 min 0,000 mm 0,0 UV-I 0 W/m 11,5 C 16,6 C 0,0 km/h (0 Bft) 0,00 %
27.06.2015 01:35 16,6 C 71 % 1017,4 hPa 0,0 l/m 0,0 km/h (0 Bft) NO 44 0 min 0,000 mm 0,0 UV-I 0 W/m 11,3 C 16,6 C 0,0 km/h (0 Bft) 0,00 %
27.06.2015 01:40 16,6 C 71 % 1017,4 hPa 0,0 l/m 0,0 km/h (0 Bft) N 354 0 min 0,000 mm 0,0 UV-I 0 W/m 11,3 C 16,6 C 0,0 km/h (0 Bft) 0,00 %
27.06.2015 01:45 16,5 C 70 % 1017,5 hPa 0,0 l/m 0,0 km/h (0 Bft) O-SO 102 0 min 0,000 mm 0,0 UV-I 0 W/m 11,0 C 16,5 C 0,0 km/h (0 Bft) 0,00 %
27.06.2015 01:50 16,5 C 71 % 1017,3 hPa 0,0 l/m 0,0 km/h (0 Bft) NO 44 0 min 0,000 mm 0,0 UV-I 0 W/m 11,2 C 16,5 C 0,0 km/h (0 Bft) 0,00 %
27.06.2015 01:55 16,5 C 71 % 1017,4 hPa 0,0 l/m 0,0 km/h (0 Bft) O-NO 66 0 min 0,000 mm 0,0 UV-I 0 W/m 11,2 C 16,5 C 0,0 km/h (0 Bft) 0,00 %
27.06.2015 02:00 16,5 C 71 % 1017,2 hPa 0,0 l/m 0,0 km/h (0 Bft) O-NO 66 0 min 0,000 mm 0,0 UV-I 0 W/m 11,2 C 16,5 C 0,0 km/h (0 Bft) 0,00 %
27.06.2015 02:05 16,4 C 71 % 1017,3 hPa 0,0 l/m 0,0 km/h (0 Bft) O-NO 65 0 min 0,000 mm 0,0 UV-I 0 W/m 11,1 C 16,4 C 0,0 km/h (0 Bft) 0,00 %
27.06.2015 02:10 16,4 C 71 % 1017,2 hPa 0,0 l/m 0,0 km/h (0 Bft) NO 41 0 min 0,000 mm 0,0 UV-I 0 W/m 11,1 C 16,4 C 0,0 km/h (0 Bft) 0,00 %
27.06.2015 02:15 16,4 C 71 % 1017,3 hPa 0,0 l/m 0,0 km/h (0 Bft) N 359 0 min 0,000 mm 0,0 UV-I 0 W/m 11,1 C 16,4 C 0,0 km/h (0 Bft) 0,00 %
27.06.2015 02:20 16,4 C 71 % 1017,1 hPa 0,0 l/m 0,0 km/h (0 Bft) NO 42 0 min 0,000 mm 0,0 UV-I 0 W/m 11,1 C 16,4 C 0,0 km/h (0 Bft) 0,00 %
27.06.2015 02:25 16,4 C 71 % 1017,3 hPa 0,0 l/m 0,0 km/h (0 Bft) NO 56 0 min 0,000 mm 0,0 UV-I 0 W/m 11,1 C 16,4 C 0,0 km/h (0 Bft) 0,00 %
27.06.2015 02:30 16,4 C 71 % 1017,1 hPa 0,0 l/m 0,0 km/h (0 Bft) NO 40 0 min 0,000 mm 0,0 UV-I 0 W/m 11,1 C 16,4 C 0,0 km/h (0 Bft) 0,00 %
27.06.2015 02:35 16,3 C 71 % 1017,2 hPa 0,0 l/m 0,0 km/h (0 Bft) NO 45 0 min 0,000 mm 0,0 UV-I 0 W/m 11,0 C 16,3 C 0,0 km/h (0 Bft) 0,00 %
27.06.2015 02:40 16,3 C 71 % 1017,0 hPa 0,0 l/m 0,0 km/h (0 Bft) N-NO 18 0 min 0,000 mm 0,0 UV-I 0 W/m 11,0 C 16,3 C 0,0 km/h (0 Bft) 0,00 %
27.06.2015 02:45 16,3 C 71 % 1016,9 hPa 0,0 l/m 0,0 km/h (0 Bft) NO 56 0 min 0,000 mm 0,0 UV-I 0 W/m 11,0 C 16,3 C 0,0 km/h (0 Bft) 0,00 %
27.06.2015 02:50 16,3 C 71 % 1016,8 hPa 0,0 l/m 0,0 km/h (0 Bft) NO 40 0 min 0,000 mm 0,0 UV-I 0 W/m 11,0 C 16,3 C 0,0 km/h (0 Bft) 0,00 %
27.06.2015 02:55 16,2 C 71 % 1016,8 hPa 0,0 l/m 0,0 km/h (0 Bft) NO 35 0 min 0,000 mm 0,0 UV-I 0 W/m 10,9 C 16,2 C 0,0 km/h (0 Bft) 0,00 %
27.06.2015 03:00 16,2 C 71 % 1016,9 hPa 0,0 l/m 0,0 km/h (0 Bft) NO 47 0 min 0,000 mm 0,0 UV-I 0 W/m 10,9 C 16,2 C 0,0 km/h (0 Bft) 0,00 %
27.06.2015 03:05 16,2 C 71 % 1016,8 hPa 0,0 l/m 0,0 km/h (0 Bft) NO 35 0 min 0,000 mm 0,0 UV-I 0 W/m 10,9 C 16,2 C 0,0 km/h (0 Bft) 0,00 %
27.06.2015 03:10 16,1 C 71 % 1017,0 hPa 0,0 l/m 0,0 km/h (0 Bft) N-NO 27 0 min 0,000 mm 0,0 UV-I 0 W/m 10,8 C 16,1 C 0,0 km/h (0 Bft) 0,00 %
27.06.2015 03:15 16,1 C 71 % 1017,0 hPa 0,0 l/m 0,0 km/h (0 Bft) NO 39 0 min 0,000 mm 0,0 UV-I 0 W/m 10,8 C 16,1 C 0,0 km/h (0 Bft) 0,00 %
27.06.2015 03:20 16,1 C 72 % 1016,9 hPa 0,0 l/m 0,0 km/h (0 Bft) NO 42 0 min 0,000 mm 0,0 UV-I 0 W/m 11,0 C 16,1 C 0,0 km/h (0 Bft) 0,00 %
27.06.2015 03:25 16,1 C 71 % 1017,1 hPa 0,0 l/m 0,0 km/h (0 Bft) NO 48 0 min 0,000 mm 0,0 UV-I 0 W/m 10,8 C 16,1 C 0,0 km/h (0 Bft) 0,00 %
27.06.2015 03:30 16,1 C 71 % 1016,7 hPa 0,0 l/m 0,0 km/h (0 Bft) NO 36 0 min 0,000 mm 0,0 UV-I 0 W/m 10,8 C 16,1 C 0,0 km/h (0 Bft) 0,00 %
27.06.2015 03:35 16,1 C 71 % 1016,9 hPa 0,0 l/m 0,0 km/h (0 Bft) NO 48 0 min 0,000 mm 0,0 UV-I 0 W/m 10,8 C 16,1 C 0,0 km/h (0 Bft) 0,00 %
27.06.2015 03:40 16,1 C 71 % 1016,9 hPa 0,0 l/m 0,0 km/h (0 Bft) NO 42 0 min 0,000 mm 0,0 UV-I 0 W/m 10,8 C 16,1 C 0,0 km/h (0 Bft) 0,00 %
27.06.2015 03:45 16,1 C 71 % 1016,9 hPa 0,0 l/m 0,0 km/h (0 Bft) NO 40 0 min 0,000 mm 0,0 UV-I 0 W/m 10,8 C 16,1 C 0,0 km/h (0 Bft) 0,00 %
27.06.2015 03:50 16,1 C 72 % 1016,7 hPa 0,0 l/m 0,0 km/h (0 Bft) NO 41 0 min 0,000 mm 0,0 UV-I 0 W/m 11,0 C 16,1 C 0,0 km/h (0 Bft) 0,00 %
27.06.2015 03:55 16,0 C 71 % 1016,9 hPa 0,0 l/m 0,4 km/h (0 Bft) N 356 0 min 0,000 mm 0,0 UV-I 0 W/m 10,7 C 16,0 C 4,0 km/h (1 Bft) 0,00 %
27.06.2015 04:00 16,0 C 72 % 1016,7 hPa 0,0 l/m 0,0 km/h (0 Bft) N 4 0 min 0,000 mm 0,0 UV-I 0 W/m 11,0 C 16,0 C 0,0 km/h (0 Bft) 0,00 %
27.06.2015 04:05 16,0 C 74 % 1016,8 hPa 0,0 l/m 0,0 km/h (0 Bft) N 354 0 min 0,000 mm 0,0 UV-I 0 W/m 11,4 C 16,0 C 0,0 km/h (0 Bft) 0,00 %
27.06.2015 04:10 15,9 C 75 % 1016,8 hPa 0,0 l/m 0,0 km/h (0 Bft) N-NO 18 0 min 0,000 mm 0,0 UV-I 0 W/m 11,5 C 15,9 C 0,0 km/h (0 Bft) 0,00 %
27.06.2015 04:15 15,8 C 75 % 1016,7 hPa 0,0 l/m 0,0 km/h (0 Bft) N-NO 21 0 min 0,000 mm 0,0 UV-I 0 W/m 11,4 C 15,8 C 0,0 km/h (0 Bft) 0,00 %
27.06.2015 04:20 15,7 C 76 % 1016,7 hPa 0,0 l/m 0,0 km/h (0 Bft) NO 37 0 min 0,000 mm 0,0 UV-I 0 W/m 11,5 C 15,7 C 0,0 km/h (0 Bft) 0,00 %
27.06.2015 04:25 15,6 C 75 % 1016,7 hPa 0,0 l/m 0,0 km/h (0 Bft) N-NO 23 0 min 0,000 mm 0,0 UV-I 0 W/m 11,2 C 15,6 C 0,0 km/h (0 Bft) 0,00 %
27.06.2015 04:30 15,5 C 76 % 1016,9 hPa 0,0 l/m 0,0 km/h (0 Bft) N-NO 32 0 min 0,000 mm 0,0 UV-I 0 W/m 11,3 C 15,5 C 0,0 km/h (0 Bft) 0,00 %
27.06.2015 04:35 15,5 C 77 % 1016,9 hPa 0,0 l/m 0,0 km/h (0 Bft) N-NO 22 0 min 0,000 mm 0,0 UV-I 0 W/m 11,5 C 15,5 C 0,0 km/h (0 Bft) 0,00 %
27.06.2015 04:40 15,4 C 79 % 1017,0 hPa 0,0 l/m 0,0 km/h (0 Bft) NO 48 0 min 0,000 mm 0,0 UV-I 0 W/m 11,8 C 15,4 C 0,0 km/h (0 Bft) 0,00 %
27.06.2015 04:45 15,4 C 79 % 1017,1 hPa 0,0 l/m 0,0 km/h (0 Bft) N 356 0 min 0,000 mm 0,0 UV-I 0 W/m 11,8 C 15,4 C 0,0 km/h (0 Bft) 0,00 %
27.06.2015 04:50 15,3 C 79 % 1017,0 hPa 0,0 l/m 0,7 km/h (0 Bft) W-NW 288 0 min 0,000 mm 0,0 UV-I 0 W/m 11,7 C 15,3 C 4,0 km/h (1 Bft) 0,00 %
27.06.2015 04:55 15,3 C 78 % 1017,1 hPa 0,0 l/m 0,0 km/h (0 Bft) O-NO 69 0 min 0,000 mm 0,0 UV-I 0 W/m 11,5 C 15,3 C 0,0 km/h (0 Bft) 0,00 %
27.06.2015 05:00 15,5 C 77 % 1016,8 hPa 0,0 l/m 0,0 km/h (0 Bft) N-NO 32 0 min 0,000 mm 0,0 UV-I 0 W/m 11,5 C 15,5 C 0,0 km/h (0 Bft) 0,00 %
27.06.2015 05:05 15,7 C 77 % 1016,7 hPa 0,0 l/m 0,0 km/h (0 Bft) NO 36 0 min 0,000 mm 0,0 UV-I 0 W/m 11,7 C 15,7 C 0,0 km/h (0 Bft) 0,00 %
27.06.2015 05:10 15,7 C 78 % 1016,8 hPa 0,0 l/m 0,0 km/h (0 Bft) NO 34 0 min 0,000 mm 0,0 UV-I 0 W/m 11,9 C 15,7 C 0,0 km/h (0 Bft) 0,00 %
27.06.2015 05:15 15,7 C 78 % 1016,8 hPa 0,0 l/m 0,0 km/h (0 Bft) N 356 0 min 0,000 mm 0,0 UV-I 0 W/m 11,9 C 15,7 C 0,0 km/h (0 Bft) 0,00 %
27.06.2015 05:20 15,7 C 78 % 1016,7 hPa 0,0 l/m 0,0 km/h (0 Bft) NO 51 0 min 0,000 mm 0,0 UV-I 0 W/m 11,9 C 15,7 C 0,0 km/h (0 Bft) 0,00 %
27.06.2015 05:25 15,7 C 79 % 1017,0 hPa 0,0 l/m 0,0 km/h (0 Bft) NO 41 0 min 0,000 mm 0,0 UV-I 0 W/m 12,1 C 15,7 C 0,0 km/h (0 Bft) 0,00 %
27.06.2015 05:30 15,6 C 79 % 1016,9 hPa 0,0 l/m 0,0 km/h (0 Bft) NO 52 0 min 0,000 mm 0,0 UV-I 0 W/m 12,0 C 15,6 C 0,0 km/h (0 Bft) 0,00 %
27.06.2015 05:35 15,6 C 79 % 1016,7 hPa 0,0 l/m 0,0 km/h (0 Bft) N 350 0 min 0,000 mm 0,0 UV-I 0 W/m 12,0 C 15,6 C 0,0 km/h (0 Bft) 0,00 %
27.06.2015 05:40 15,6 C 79 % 1016,8 hPa 0,0 l/m 0,0 km/h (0 Bft) N-NO 33 0 min 0,000 mm 0,0 UV-I 2 W/m 12,0 C 15,6 C 0,0 km/h (0 Bft) 0,00 %
27.06.2015 05:45 15,7 C 79 % 1016,7 hPa 0,0 l/m 0,0 km/h (0 Bft) NO 45 0 min 0,000 mm 0,0 UV-I 5 W/m 12,1 C 15,7 C 0,0 km/h (0 Bft) 0,00 %
27.06.2015 05:50 15,7 C 79 % 1016,6 hPa 0,0 l/m 0,0 km/h (0 Bft) NO 39 0 min 0,000 mm 0,0 UV-I 10 W/m 12,1 C 15,7 C 0,0 km/h (0 Bft) 0,00 %
27.06.2015 05:55 15,7 C 79 % 1016,8 hPa 0,0 l/m 0,0 km/h (0 Bft) NO 36 0 min 0,000 mm 0,0 UV-I 19 W/m 12,1 C 15,7 C 0,0 km/h (0 Bft) 0,00 %
27.06.2015 06:00 15,8 C 79 % 1016,7 hPa 0,0 l/m 0,0 km/h (0 Bft) NO 41 0 min 0,000 mm 0,0 UV-I 24 W/m 12,2 C 15,8 C 0,0 km/h (0 Bft) 0,00 %
27.06.2015 06:05 15,8 C 79 % 1016,9 hPa 0,0 l/m 0,0 km/h (0 Bft) NO 44 0 min 0,000 mm 0,0 UV-I 27 W/m 12,2 C 15,8 C 0,0 km/h (0 Bft) 0,00 %
27.06.2015 06:10 15,9 C 79 % 1016,8 hPa 0,0 l/m 0,0 km/h (0 Bft) NO 40 0 min 0,000 mm 0,0 UV-I 28 W/m 12,3 C 15,9 C 0,0 km/h (0 Bft) 0,00 %
27.06.2015 06:15 15,9 C 77 % 1016,9 hPa 0,0 l/m 0,0 km/h (0 Bft) NO 48 0 min 0,000 mm 0,0 UV-I 30 W/m 11,9 C 15,9 C 0,0 km/h (0 Bft) 0,00 %
27.06.2015 06:20 15,9 C 77 % 1016,9 hPa 0,0 l/m 0,0 km/h (0 Bft) NO 52 0 min 0,000 mm 0,0 UV-I 38 W/m 11,9 C 15,9 C 0,0 km/h (0 Bft) 0,00 %
27.06.2015 06:25 16,0 C 76 % 1016,7 hPa 0,0 l/m 0,0 km/h (0 Bft) NO 50 0 min 0,000 mm 0,0 UV-I 47 W/m 11,8 C 16,0 C 0,0 km/h (0 Bft) 0,00 %
27.06.2015 06:30 16,1 C 77 % 1016,5 hPa 0,0 l/m 0,0 km/h (0 Bft) NO 56 0 min 0,000 mm 0,0 UV-I 52 W/m 12,1 C 16,1 C 0,0 km/h (0 Bft) 0,00 %
27.06.2015 06:35 16,1 C 75 % 1016,6 hPa 0,0 l/m 0,0 km/h (0 Bft) NO 51 0 min 0,000 mm 0,0 UV-I 56 W/m 11,7 C 16,1 C 0,0 km/h (0 Bft) 0,00 %
27.06.2015 06:40 16,2 C 75 % 1016,6 hPa 0,0 l/m 0,0 km/h (0 Bft) NO 43 0 min 0,000 mm 0,0 UV-I 49 W/m 11,8 C 16,2 C 0,0 km/h (0 Bft) 0,00 %
27.06.2015 06:45 16,2 C 75 % 1016,7 hPa 0,0 l/m 0,0 km/h (0 Bft) NO 46 0 min 0,000 mm 0,0 UV-I 42 W/m 11,8 C 16,2 C 0,0 km/h (0 Bft) 0,00 %
27.06.2015 06:50 16,2 C 75 % 1016,8 hPa 0,0 l/m 0,0 km/h (0 Bft) NO 44 0 min 0,000 mm 0,0 UV-I 41 W/m 11,8 C 16,2 C 0,0 km/h (0 Bft) 0,00 %
27.06.2015 06:55 16,2 C 75 % 1016,8 hPa 0,0 l/m 0,0 km/h (0 Bft) NO 44 0 min 0,000 mm 0,0 UV-I 42 W/m 11,8 C 16,2 C 0,0 km/h (0 Bft) 0,00 %
27.06.2015 07:00 16,2 C 75 % 1016,9 hPa 0,0 l/m 0,0 km/h (0 Bft) NO 42 0 min 0,000 mm 0,0 UV-I 47 W/m 11,8 C 16,2 C 0,0 km/h (0 Bft) 0,00 %
27.06.2015 07:05 16,2 C 75 % 1016,8 hPa 0,0 l/m 0,0 km/h (0 Bft) NO 47 0 min 0,000 mm 0,0 UV-I 51 W/m 11,8 C 16,2 C 0,0 km/h (0 Bft) 0,00 %
27.06.2015 07:10 16,3 C 75 % 1016,9 hPa 0,0 l/m 0,0 km/h (0 Bft) NO 45 0 min 0,000 mm 0,0 UV-I 53 W/m 11,9 C 16,3 C 0,0 km/h (0 Bft) 0,00 %
27.06.2015 07:15 16,3 C 76 % 1016,6 hPa 0,0 l/m 0,0 km/h (0 Bft) NO 44 0 min 0,000 mm 0,0 UV-I 43 W/m 12,1 C 16,3 C 0,0 km/h (0 Bft) 0,00 %
27.06.2015 07:20 16,4 C 76 % 1016,8 hPa 0,0 l/m 0,0 km/h (0 Bft) NO 39 0 min 0,000 mm 0,0 UV-I 33 W/m 12,2 C 16,4 C 0,0 km/h (0 Bft) 0,00 %
27.06.2015 07:25 16,4 C 76 % 1016,7 hPa 0,0 l/m 0,0 km/h (0 Bft) NO 44 0 min 0,000 mm 0,0 UV-I 29 W/m 12,2 C 16,4 C 0,0 km/h (0 Bft) 0,00 %
27.06.2015 07:30 16,4 C 76 % 1016,8 hPa 0,0 l/m 0,0 km/h (0 Bft) NO 45 0 min 0,000 mm 0,0 UV-I 42 W/m 12,2 C 16,4 C 0,0 km/h (0 Bft) 0,00 %
27.06.2015 07:35 16,4 C 77 % 1016,7 hPa 0,0 l/m 0,0 km/h (0 Bft) NO 44 0 min 0,000 mm 1,0 UV-I 65 W/m 12,4 C 16,4 C 0,0 km/h (0 Bft) 0,00 %
27.06.2015 07:40 16,4 C 77 % 1016,7 hPa 0,0 l/m 0,0 km/h (0 Bft) NO 38 0 min 0,000 mm 1,0 UV-I 84 W/m 12,4 C 16,4 C 0,0 km/h (0 Bft) 0,00 %
27.06.2015 07:45 16,5 C 77 % 1016,8 hPa 0,0 l/m 0,0 km/h (0 Bft) NO 40 0 min 0,000 mm 1,0 UV-I 105 W/m 12,5 C 16,5 C 0,0 km/h (0 Bft) 0,00 %
27.06.2015 07:50 16,7 C 76 % 1016,5 hPa 0,0 l/m 0,0 km/h (0 Bft) NO 42 0 min 0,000 mm 1,0 UV-I 114 W/m 12,4 C 16,7 C 0,0 km/h (0 Bft) 0,00 %
27.06.2015 07:55 16,9 C 75 % 1016,5 hPa 0,0 l/m 0,0 km/h (0 Bft) N 349 0 min 0,000 mm 1,0 UV-I 126 W/m 12,4 C 16,9 C 0,0 km/h (0 Bft) 0,00 %
27.06.2015 08:00 17,1 C 76 % 1016,6 hPa 0,0 l/m 0,0 km/h (0 Bft) NO 35 0 min 0,000 mm 1,0 UV-I 123 W/m 12,8 C 17,1 C 0,0 km/h (0 Bft) 0,00 %
27.06.2015 08:05 17,2 C 74 % 1016,6 hPa 0,0 l/m 0,0 km/h (0 Bft) NO 45 0 min 0,000 mm 1,0 UV-I 119 W/m 12,5 C 17,2 C 0,0 km/h (0 Bft) 0,00 %
27.06.2015 08:10 17,4 C 73 % 1016,5 hPa 0,0 l/m 0,0 km/h (0 Bft) N 358 0 min 0,000 mm 1,0 UV-I 132 W/m 12,5 C 17,4 C 0,0 km/h (0 Bft) 0,00 %
27.06.2015 08:15 17,6 C 73 % 1016,5 hPa 0,0 l/m 0,0 km/h (0 Bft) N-NO 31 0 min 0,000 mm 1,0 UV-I 155 W/m 12,7 C 17,6 C 0,0 km/h (0 Bft) 0,00 %
27.06.2015 08:20 17,7 C 73 % 1016,4 hPa 0,0 l/m 0,0 km/h (0 Bft) NO 42 0 min 0,000 mm 1,0 UV-I 175 W/m 12,8 C 17,7 C 0,0 km/h (0 Bft) 0,00 %
27.06.2015 08:25 17,9 C 72 % 1016,6 hPa 0,0 l/m 1,4 km/h (1 Bft) W-NW 285 0 min 0,000 mm 1,0 UV-I 188 W/m 12,8 C 17,9 C 4,0 km/h (1 Bft) 0,00 %
27.06.2015 08:30 18,0 C 70 % 1016,5 hPa 0,0 l/m 0,0 km/h (0 Bft) N-NW 339 0 min 0,000 mm 1,0 UV-I 182 W/m 12,4 C 18,0 C 0,0 km/h (0 Bft) 0,00 %
27.06.2015 08:35 18,2 C 71 % 1016,5 hPa 0,0 l/m 0,0 km/h (0 Bft) NO 56 0 min 0,000 mm 1,0 UV-I 171 W/m 12,9 C 18,2 C 0,0 km/h (0 Bft) 0,00 %
27.06.2015 08:40 18,3 C 70 % 1016,5 hPa 0,0 l/m 0,0 km/h (0 Bft) N 0 0 min 0,000 mm 1,0 UV-I 151 W/m 12,7 C 18,3 C 0,0 km/h (0 Bft) 0,00 %
27.06.2015 08:45 18,3 C 70 % 1016,4 hPa 0,0 l/m 0,0 km/h (0 Bft) N-NO 21 0 min 0,000 mm 1,0 UV-I 128 W/m 12,7 C 18,3 C 0,0 km/h (0 Bft) 0,00 %
27.06.2015 08:50 18,3 C 71 % 1016,5 hPa 0,0 l/m 0,0 km/h (0 Bft) N-NO 13 0 min 0,000 mm 1,0 UV-I 120 W/m 12,9 C 18,3 C 0,0 km/h (0 Bft) 0,00 %
27.06.2015 08:55 18,2 C 72 % 1016,5 hPa 0,0 l/m 0,0 km/h (0 Bft) N-NO 33 0 min 0,000 mm 1,0 UV-I 115 W/m 13,1 C 18,2 C 0,0 km/h (0 Bft) 0,00 %
27.06.2015 09:00 18,1 C 71 % 1016,8 hPa 0,0 l/m 0,4 km/h (0 Bft) W-NW 282 0 min 0,000 mm 1,0 UV-I 109 W/m 12,8 C 18,1 C 4,0 km/h (1 Bft) 0,00 %
27.06.2015 09:05 18,1 C 72 % 1016,7 hPa 0,0 l/m 0,0 km/h (0 Bft) N-NO 21 0 min 0,000 mm 1,0 UV-I 103 W/m 13,0 C 18,1 C 0,0 km/h (0 Bft) 0,00 %
27.06.2015 09:10 18,1 C 72 % 1016,8 hPa 0,0 l/m 0,0 km/h (0 Bft) N-NO 16 0 min 0,000 mm 1,0 UV-I 99 W/m 13,0 C 18,1 C 0,0 km/h (0 Bft) 0,00 %
27.06.2015 09:15 18,1 C 73 % 1016,8 hPa 0,0 l/m 0,0 km/h (0 Bft) N-NO 27 0 min 0,000 mm 1,0 UV-I 96 W/m 13,2 C 18,1 C 0,0 km/h (0 Bft) 0,00 %
27.06.2015 09:20 18,1 C 73 % 1016,7 hPa 0,0 l/m 0,0 km/h (0 Bft) NW 317 0 min 0,000 mm 1,0 UV-I 100 W/m 13,2 C 18,1 C 0,0 km/h (0 Bft) 0,00 %
27.06.2015 09:25 18,1 C 72 % 1016,8 hPa 0,0 l/m 0,0 km/h (0 Bft) NW 314 0 min 0,000 mm 1,0 UV-I 100 W/m 13,0 C 18,1 C 0,0 km/h (0 Bft) 0,00 %
27.06.2015 09:30 18,0 C 73 % 1016,8 hPa 0,0 l/m 0,0 km/h (0 Bft) N-NW 345 0 min 0,000 mm 1,0 UV-I 94 W/m 13,1 C 18,0 C 0,0 km/h (0 Bft) 0,00 %
27.06.2015 09:35 18,0 C 73 % 1016,7 hPa 0,0 l/m 0,0 km/h (0 Bft) N 354 0 min 0,000 mm 1,0 UV-I 90 W/m 13,1 C 18,0 C 0,0 km/h (0 Bft) 0,00 %
27.06.2015 09:40 18,0 C 72 % 1016,6 hPa 0,0 l/m 0,0 km/h (0 Bft) N 355 0 min 0,000 mm 1,0 UV-I 90 W/m 12,9 C 18,0 C 0,0 km/h (0 Bft) 0,00 %
27.06.2015 09:45 18,0 C 72 % 1016,8 hPa 0,0 l/m 0,0 km/h (0 Bft) NO 44 0 min 0,000 mm 1,0 UV-I 96 W/m 12,9 C 18,0 C 0,0 km/h (0 Bft) 0,00 %
27.06.2015 09:50 18,0 C 72 % 1016,8 hPa 0,0 l/m 0,0 km/h (0 Bft) NO 42 0 min 0,000 mm 1,0 UV-I 101 W/m 12,9 C 18,0 C 0,0 km/h (0 Bft) 0,00 %
27.06.2015 09:55 18,0 C 72 % 1016,8 hPa 0,0 l/m 0,0 km/h (0 Bft) N-NO 14 0 min 0,000 mm 1,0 UV-I 109 W/m 12,9 C 18,0 C 0,0 km/h (0 Bft) 0,00 %
27.06.2015 10:00 18,1 C 73 % 1016,7 hPa 0,0 l/m 0,0 km/h (0 Bft) N-NO 28 0 min 0,000 mm 1,0 UV-I 115 W/m 13,2 C 18,1 C 0,0 km/h (0 Bft) 0,00 %
27.06.2015 10:05 18,2 C 74 % 1016,5 hPa 0,0 l/m 0,0 km/h (0 Bft) N-NO 28 0 min 0,000 mm 1,0 UV-I 119 W/m 13,5 C 18,2 C 0,0 km/h (0 Bft) 0,00 %
27.06.2015 10:10 18,2 C 74 % 1016,6 hPa 0,0 l/m 0,0 km/h (0 Bft) N 9 0 min 0,000 mm 1,0 UV-I 126 W/m 13,5 C 18,2 C 0,0 km/h (0 Bft) 0,00 %
27.06.2015 10:15 18,2 C 72 % 1016,7 hPa 0,0 l/m 0,0 km/h (0 Bft) N 350 0 min 0,000 mm 1,0 UV-I 132 W/m 13,1 C 18,2 C 0,0 km/h (0 Bft) 0,00 %
27.06.2015 10:20 18,2 C 73 % 1016,7 hPa 0,0 l/m 0,0 km/h (0 Bft) NO 35 0 min 0,000 mm 1,0 UV-I 129 W/m 13,3 C 18,2 C 0,0 km/h (0 Bft) 0,00 %
27.06.2015 10:25 18,3 C 73 % 1016,7 hPa 0,0 l/m 0,0 km/h (0 Bft) NO 43 0 min 0,000 mm 1,0 UV-I 138 W/m 13,4 C 18,3 C 0,0 km/h (0 Bft) 0,00 %
27.06.2015 10:30 18,4 C 74 % 1016,8 hPa 0,0 l/m 0,0 km/h (0 Bft) N-NO 32 0 min 0,000 mm 1,0 UV-I 162 W/m 13,7 C 18,4 C 0,0 km/h (0 Bft) 0,00 %
27.06.2015 10:35 18,5 C 73 % 1016,9 hPa 0,0 l/m 0,0 km/h (0 Bft) N 354 0 min 0,000 mm 1,0 UV-I 193 W/m 13,6 C 18,5 C 0,0 km/h (0 Bft) 0,00 %
27.06.2015 10:40 18,7 C 72 % 1017,0 hPa 0,0 l/m 0,0 km/h (0 Bft) N-NO 32 0 min 0,000 mm 1,0 UV-I 231 W/m 13,5 C 18,7 C 0,0 km/h (0 Bft) 0,00 %
27.06.2015 10:45 18,9 C 71 % 1017,1 hPa 0,0 l/m 0,0 km/h (0 Bft) NO 39 0 min 0,000 mm 2,0 UV-I 305 W/m 13,5 C 18,9 C 0,0 km/h (0 Bft) 0,00 %
27.06.2015 10:50 19,2 C 70 % 1016,9 hPa 0,0 l/m 0,0 km/h (0 Bft) NO 39 0 min 0,000 mm 2,0 UV-I 343 W/m 13,6 C 19,2 C 0,0 km/h (0 Bft) 0,00 %
27.06.2015 10:55 19,5 C 65 % 1016,8 hPa 0,0 l/m 0,0 km/h (0 Bft) N 353 0 min 0,000 mm 2,0 UV-I 333 W/m 12,7 C 19,5 C 0,0 km/h (0 Bft) 0,00 %
27.06.2015 11:00 19,9 C 63 % 1016,7 hPa 0,0 l/m 0,0 km/h (0 Bft) N-NO 29 0 min 0,000 mm 2,0 UV-I 280 W/m 12,6 C 19,9 C 0,0 km/h (0 Bft) 0,00 %
27.06.2015 11:05 20,3 C 62 % 1016,7 hPa 0,0 l/m 0,0 km/h (0 Bft) N-NO 30 0 min 0,000 mm 1,0 UV-I 261 W/m 12,8 C 20,3 C 0,0 km/h (0 Bft) 0,00 %
27.06.2015 11:10 20,7 C 61 % 1016,6 hPa 0,0 l/m 0,0 km/h (0 Bft) N 353 0 min 0,000 mm 1,0 UV-I 260 W/m 12,9 C 20,7 C 0,0 km/h (0 Bft) 0,00 %
27.06.2015 11:15 20,9 C 60 % 1016,6 hPa 0,0 l/m 0,0 km/h (0 Bft) NO 49 0 min 0,000 mm 1,0 UV-I 248 W/m 12,8 C 20,9 C 0,0 km/h (0 Bft) 0,00 %
27.06.2015 11:20 21,0 C 62 % 1016,6 hPa 0,0 l/m 0,0 km/h (0 Bft) N-NO 28 0 min 0,000 mm 1,0 UV-I 263 W/m 13,4 C 21,0 C 0,0 km/h (0 Bft) 0,00 %
27.06.2015 11:25 20,9 C 62 % 1016,6 hPa 0,0 l/m 0,0 km/h (0 Bft) NO 39 0 min 0,000 mm 2,0 UV-I 297 W/m 13,3 C 20,9 C 0,0 km/h (0 Bft) 0,00 %
27.06.2015 11:30 20,8 C 62 % 1016,6 hPa 0,0 l/m 0,0 km/h (0 Bft) NO 45 0 min 0,000 mm 2,0 UV-I 339 W/m 13,2 C 20,8 C 0,0 km/h (0 Bft) 0,00 %
27.06.2015 11:35 20,8 C 64 % 1016,4 hPa 0,0 l/m 0,0 km/h (0 Bft) N-NO 27 0 min 0,000 mm 2,0 UV-I 395 W/m 13,7 C 20,8 C 0,0 km/h (0 Bft) 0,00 %
27.06.2015 11:40 20,9 C 60 % 1016,6 hPa 0,0 l/m 0,0 km/h (0 Bft) NO 43 0 min 0,000 mm 2,0 UV-I 395 W/m 12,8 C 20,9 C 0,0 km/h (0 Bft) 0,00 %
27.06.2015 11:45 21,0 C 59 % 1016,4 hPa 0,0 l/m 0,0 km/h (0 Bft) O-NO 59 0 min 0,000 mm 2,0 UV-I 397 W/m 12,7 C 21,0 C 0,0 km/h (0 Bft) 0,00 %
27.06.2015 11:50 21,2 C 58 % 1016,3 hPa 0,0 l/m 0,0 km/h (0 Bft) O-NO 58 0 min 0,000 mm 2,0 UV-I 422 W/m 12,6 C 21,2 C 0,0 km/h (0 Bft) 0,00 %
27.06.2015 11:55 21,3 C 58 % 1016,6 hPa 0,0 l/m 0,0 km/h (0 Bft) NO 51 0 min 0,000 mm 2,0 UV-I 337 W/m 12,7 C 21,3 C 0,0 km/h (0 Bft) 0,00 %
27.06.2015 12:00 21,4 C 58 % 1016,5 hPa 0,0 l/m 0,0 km/h (0 Bft) O-NO 57 0 min 0,000 mm 2,0 UV-I 302 W/m 12,8 C 21,4 C 0,0 km/h (0 Bft) 0,00 %
27.06.2015 12:05 21,5 C 59 % 1016,5 hPa 0,0 l/m 0,0 km/h (0 Bft) O-NO 65 0 min 0,000 mm 2,0 UV-I 322 W/m 13,1 C 21,5 C 0,0 km/h (0 Bft) 0,00 %
27.06.2015 12:10 21,6 C 58 % 1016,4 hPa 0,0 l/m 0,0 km/h (0 Bft) NO 46 0 min 0,000 mm 2,0 UV-I 391 W/m 13,0 C 21,6 C 0,0 km/h (0 Bft) 0,00 %
27.06.2015 12:15 21,7 C 58 % 1016,3 hPa 0,0 l/m 0,0 km/h (0 Bft) N 349 0 min 0,000 mm 2,0 UV-I 427 W/m 13,1 C 21,7 C 0,0 km/h (0 Bft) 0,00 %
27.06.2015 12:20 22,0 C 58 % 1016,4 hPa 0,0 l/m 0,0 km/h (0 Bft) N-NO 29 0 min 0,000 mm 2,0 UV-I 428 W/m 13,3 C 22,0 C 0,0 km/h (0 Bft) 0,00 %
27.06.2015 12:25 22,1 C 57 % 1016,5 hPa 0,0 l/m 0,0 km/h (0 Bft) N 5 0 min 0,000 mm 2,0 UV-I 443 W/m 13,2 C 22,1 C 0,0 km/h (0 Bft) 0,00 %
27.06.2015 12:30 22,2 C 59 % 1016,5 hPa 0,0 l/m 0,0 km/h (0 Bft) N 354 0 min 0,000 mm 2,0 UV-I 457 W/m 13,8 C 22,2 C 0,0 km/h (0 Bft) 0,00 %
27.06.2015 12:35 22,2 C 62 % 1016,5 hPa 0,0 l/m 0,0 km/h (0 Bft) N-NO 33 0 min 0,000 mm 2,0 UV-I 479 W/m 14,6 C 22,2 C 0,0 km/h (0 Bft) 0,00 %
27.06.2015 12:40 22,2 C 60 % 1016,4 hPa 0,0 l/m 0,0 km/h (0 Bft) N 349 0 min 0,000 mm 2,0 UV-I 437 W/m 14,1 C 22,2 C 0,0 km/h (0 Bft) 0,00 %
27.06.2015 12:45 22,1 C 62 % 1016,4 hPa 0,0 l/m 0,0 km/h (0 Bft) N-NW 334 0 min 0,000 mm 2,0 UV-I 431 W/m 14,5 C 22,1 C 0,0 km/h (0 Bft) 0,00 %
27.06.2015 12:50 22,0 C 61 % 1016,1 hPa 0,0 l/m 0,0 km/h (0 Bft) N-NO 31 0 min 0,000 mm 2,0 UV-I 436 W/m 14,1 C 22,0 C 0,0 km/h (0 Bft) 0,00 %
27.06.2015 12:55 22,0 C 58 % 1016,1 hPa 0,0 l/m 0,0 km/h (0 Bft) NO 43 0 min 0,000 mm 2,0 UV-I 432 W/m 13,3 C 22,0 C 0,0 km/h (0 Bft) 0,00 %
27.06.2015 13:00 22,0 C 56 % 1016,0 hPa 0,0 l/m 0,0 km/h (0 Bft) N 359 0 min 0,000 mm 2,0 UV-I 428 W/m 12,8 C 22,0 C 0,0 km/h (0 Bft) 0,00 %
27.06.2015 13:05 22,3 C 55 % 1015,8 hPa 0,0 l/m 0,0 km/h (0 Bft) N-NW 347 0 min 0,000 mm 2,0 UV-I 441 W/m 12,8 C 22,3 C 0,0 km/h (0 Bft) 0,00 %
27.06.2015 13:10 22,5 C 54 % 1015,8 hPa 0,0 l/m 0,0 km/h (0 Bft) O-NO 65 0 min 0,000 mm 2,0 UV-I 466 W/m 12,7 C 22,5 C 0,0 km/h (0 Bft) 0,00 %
27.06.2015 13:15 22,3 C 60 % 1015,8 hPa 0,0 l/m 0,0 km/h (0 Bft) NW 324 5 min 0,000 mm 3,0 UV-I 503 W/m 14,2 C 22,3 C 0,0 km/h (0 Bft) 0,00 %
27.06.2015 13:20 22,2 C 59 % 1015,7 hPa 0,0 l/m 0,0 km/h (0 Bft) NO 41 5 min 0,000 mm 3,0 UV-I 572 W/m 13,8 C 22,2 C 0,0 km/h (0 Bft) 0,00 %
27.06.2015 13:25 22,3 C 55 % 1015,6 hPa 0,0 l/m 0,0 km/h (0 Bft) N-NO 24 5 min 0,000 mm 3,0 UV-I 602 W/m 12,8 C 22,3 C 0,0 km/h (0 Bft) 0,00 %
27.06.2015 13:30 22,5 C 55 % 1015,5 hPa 0,0 l/m 0,0 km/h (0 Bft) NO 36 5 min 0,000 mm 4,0 UV-I 748 W/m 13,0 C 22,5 C 0,0 km/h (0 Bft) 0,00 %
27.06.2015 13:35 22,8 C 55 % 1015,7 hPa 0,0 l/m 0,0 km/h (0 Bft) N 352 5 min 0,000 mm 4,0 UV-I 702 W/m 13,3 C 22,8 C 0,0 km/h (0 Bft) 0,00 %
27.06.2015 13:40 23,1 C 53 % 1015,6 hPa 0,0 l/m 2,2 km/h (1 Bft) SW 221 5 min 0,000 mm 3,0 UV-I 694 W/m 13,0 C 23,1 C 4,0 km/h (1 Bft) 0,00 %
27.06.2015 13:45 23,5 C 53 % 1015,5 hPa 0,0 l/m 0,0 km/h (0 Bft) N-NO 16 5 min 0,000 mm 4,0 UV-I 803 W/m 13,4 C 23,5 C 0,0 km/h (0 Bft) 0,00 %
27.06.2015 13:50 23,8 C 51 % 1015,4 hPa 0,0 l/m 0,0 km/h (0 Bft) N-NO 32 5 min 0,000 mm 4,0 UV-I 642 W/m 13,0 C 23,8 C 0,0 km/h (0 Bft) 0,00 %
27.06.2015 13:55 24,0 C 49 % 1015,3 hPa 0,0 l/m 0,0 km/h (0 Bft) NO 40 5 min 0,000 mm 3,0 UV-I 546 W/m 12,6 C 24,0 C 0,0 km/h (0 Bft) 0,00 %
27.06.2015 14:00 24,0 C 46 % 1015,3 hPa 0,0 l/m 0,0 km/h (0 Bft) N 1 5 min 0,000 mm 3,0 UV-I 622 W/m 11,7 C 24,0 C 0,0 km/h (0 Bft) 0,00 %
27.06.2015 14:05 24,0 C 49 % 1015,0 hPa 0,0 l/m 0,0 km/h (0 Bft) NO 55 5 min 0,000 mm 4,0 UV-I 690 W/m 12,6 C 24,0 C 0,0 km/h (0 Bft) 0,00 %
27.06.2015 14:10 24,2 C 50 % 1015,0 hPa 0,0 l/m 0,0 km/h (0 Bft) N-NO 16 5 min 0,000 mm 4,0 UV-I 696 W/m 13,1 C 24,2 C 0,0 km/h (0 Bft) 0,00 %
27.06.2015 14:15 24,3 C 50 % 1015,0 hPa 0,0 l/m 0,0 km/h (0 Bft) O-NO 63 5 min 0,000 mm 5,0 UV-I 808 W/m 13,2 C 24,3 C 0,0 km/h (0 Bft) 0,00 %
27.06.2015 14:20 24,4 C 50 % 1015,1 hPa 0,0 l/m 2,2 km/h (1 Bft) W 270 5 min 0,000 mm 4,0 UV-I 576 W/m 13,3 C 24,4 C 4,0 km/h (1 Bft) 0,00 %
27.06.2015 14:25 24,5 C 48 % 1015,2 hPa 0,0 l/m 0,0 km/h (0 Bft) NW 319 0 min 0,000 mm 2,0 UV-I 345 W/m 12,8 C 24,5 C 0,0 km/h (0 Bft) 0,00 %
27.06.2015 14:30 24,5 C 47 % 1015,2 hPa 0,0 l/m 1,4 km/h (1 Bft) W-SW 255 0 min 0,000 mm 2,0 UV-I 252 W/m 12,4 C 24,5 C 4,0 km/h (1 Bft) 0,00 %
27.06.2015 14:35 24,1 C 50 % 1015,1 hPa 0,0 l/m 4,0 km/h (1 Bft) SW 229 0 min 0,000 mm 1,0 UV-I 158 W/m 13,0 C 24,1 C 7,9 km/h (2 Bft) 0,00 %
27.06.2015 14:40 23,5 C 51 % 1015,3 hPa 0,0 l/m 0,0 km/h (0 Bft) NO 35 0 min 0,000 mm 1,0 UV-I 153 W/m 12,8 C 23,5 C 0,0 km/h (0 Bft) 0,00 %
27.06.2015 14:45 22,8 C 53 % 1015,3 hPa 0,0 l/m 1,4 km/h (1 Bft) N-NW 347 0 min 0,000 mm 1,0 UV-I 134 W/m 12,7 C 22,8 C 4,0 km/h (1 Bft) 0,00 %
27.06.2015 14:50 22,3 C 50 % 1015,4 hPa 0,0 l/m 0,7 km/h (0 Bft) N-NW 330 0 min 0,000 mm 1,0 UV-I 123 W/m 11,4 C 22,3 C 4,0 km/h (1 Bft) 0,00 %
27.06.2015 14:55 21,9 C 53 % 1015,6 hPa 0,0 l/m 4,7 km/h (1 Bft) S 180 0 min 0,000 mm 1,0 UV-I 68 W/m 11,9 C 21,9 C 7,9 km/h (2 Bft) 0,00 %
27.06.2015 15:00 21,4 C 63 % 1016,1 hPa 0,0 l/m 4,3 km/h (1 Bft) O-NO 61 0 min 0,000 mm 0,0 UV-I 60 W/m 14,1 C 21,4 C 7,9 km/h (2 Bft) 0,00 %
27.06.2015 15:05 20,0 C 77 % 1016,4 hPa 0,0 l/m 11,5 km/h (2 Bft) W-NW 291 0 min 0,000 mm 0,0 UV-I 34 W/m 15,8 C 18,2 C 15,8 km/h (3 Bft) 0,00 %
27.06.2015 15:10 18,2 C 82 % 1016,7 hPa 0,3 l/m 4,7 km/h (1 Bft) W 279 0 min 0,000 mm 0,0 UV-I 36 W/m 15,1 C 18,2 C 7,9 km/h (2 Bft) 0,00 %
27.06.2015 15:15 16,8 C 86 % 1017,1 hPa 0,6 l/m 4,0 km/h (1 Bft) N-NW 347 0 min 0,000 mm 0,0 UV-I 43 W/m 14,4 C 16,8 C 7,9 km/h (2 Bft) 0,00 %
27.06.2015 15:20 16,1 C 89 % 1017,1 hPa 0,0 l/m 3,2 km/h (1 Bft) W-SW 240 0 min 0,000 mm 0,0 UV-I 47 W/m 14,3 C 16,1 C 4,0 km/h (1 Bft) 0,00 %
27.06.2015 15:25 15,8 C 90 % 1016,9 hPa 0,3 l/m 0,4 km/h (0 Bft) NW 317 0 min 0,000 mm 0,0 UV-I 53 W/m 14,2 C 15,8 C 4,0 km/h (1 Bft) 0,00 %
27.06.2015 15:30 15,7 C 90 % 1016,6 hPa 0,3 l/m 0,0 km/h (0 Bft) NO 54 0 min 0,000 mm 0,0 UV-I 64 W/m 14,1 C 15,7 C 0,0 km/h (0 Bft) 0,00 %
27.06.2015 15:35 15,7 C 91 % 1016,5 hPa 0,3 l/m 0,0 km/h (0 Bft) N 355 0 min 0,000 mm 0,0 UV-I 77 W/m 14,2 C 15,7 C 0,0 km/h (0 Bft) 0,00 %
27.06.2015 15:40 15,7 C 91 % 1016,6 hPa 0,6 l/m 0,0 km/h (0 Bft) NO 46 0 min 0,000 mm 1,0 UV-I 94 W/m 14,2 C 15,7 C 0,0 km/h (0 Bft) 0,00 %
27.06.2015 15:45 15,8 C 92 % 1016,4 hPa 0,3 l/m 0,0 km/h (0 Bft) N-NO 23 0 min 0,000 mm 1,0 UV-I 114 W/m 14,5 C 15,8 C 0,0 km/h (0 Bft) 0,00 %
27.06.2015 15:50 15,9 C 91 % 1016,4 hPa 0,3 l/m 0,0 km/h (0 Bft) NO 37 0 min 0,000 mm 1,0 UV-I 141 W/m 14,4 C 15,9 C 0,0 km/h (0 Bft) 0,00 %
27.06.2015 15:55 16,0 C 92 % 1016,6 hPa 0,3 l/m 0,4 km/h (0 Bft) W-NW 294 0 min 0,000 mm 1,0 UV-I 164 W/m 14,7 C 16,0 C 4,0 km/h (1 Bft) 0,00 %
27.06.2015 16:00 16,1 C 92 % 1016,3 hPa 0,3 l/m 0,4 km/h (0 Bft) N-NW 338 0 min 0,000 mm 1,0 UV-I 172 W/m 14,8 C 16,1 C 4,0 km/h (1 Bft) 0,00 %
27.06.2015 16:05 16,2 C 93 % 1016,3 hPa 0,0 l/m 0,7 km/h (0 Bft) W-NW 296 0 min 0,000 mm 1,0 UV-I 168 W/m 15,1 C 16,2 C 4,0 km/h (1 Bft) 0,00 %
27.06.2015 16:10 16,3 C 93 % 1016,5 hPa 0,3 l/m 0,0 km/h (0 Bft) W-NW 288 0 min 0,000 mm 1,0 UV-I 157 W/m 15,2 C 16,3 C 0,0 km/h (0 Bft) 0,00 %
27.06.2015 16:15 16,1 C 93 % 1015,3 hPa 0,0 l/m 0,0 km/h (0 Bft) NO 39 0 min 0,000 mm 1,0 UV-I 147 W/m 15,0 C 16,1 C 0,0 km/h (0 Bft) 0,00 %
27.06.2015 16:20 16,3 C 93 % 1015,5 hPa 0,0 l/m 0,0 km/h (0 Bft) N-NO 23 0 min 0,000 mm 1,0 UV-I 143 W/m 15,2 C 16,3 C 0,0 km/h (0 Bft) 0,00 %
27.06.2015 16:25 16,5 C 93 % 1015,5 hPa 0,0 l/m 0,0 km/h (0 Bft) N-NW 347 0 min 0,000 mm 1,0 UV-I 148 W/m 15,4 C 16,5 C 0,0 km/h (0 Bft) 0,00 %
27.06.2015 16:30 16,4 C 93 % 1015,9 hPa 0,0 l/m 0,0 km/h (0 Bft) N 350 0 min 0,000 mm 1,0 UV-I 161 W/m 15,3 C 16,4 C 0,0 km/h (0 Bft) 0,00 %
27.06.2015 16:35 16,4 C 93 % 1015,8 hPa 0,0 l/m 0,0 km/h (0 Bft) N-NW 335 0 min 0,000 mm 1,0 UV-I 169 W/m 15,3 C 16,4 C 0,0 km/h (0 Bft) 0,00 %
27.06.2015 16:40 16,5 C 92 % 1016,0 hPa 0,0 l/m 0,0 km/h (0 Bft) N-NO 33 0 min 0,000 mm 1,0 UV-I 175 W/m 15,2 C 16,5 C 0,0 km/h (0 Bft) 0,00 %
27.06.2015 16:45 16,5 C 93 % 1015,5 hPa 0,0 l/m 0,0 km/h (0 Bft) N-NW 339 0 min 0,000 mm 1,0 UV-I 198 W/m 15,4 C 16,5 C 0,0 km/h (0 Bft) 0,00 %
27.06.2015 16:50 16,6 C 91 % 1015,4 hPa 0,0 l/m 0,0 km/h (0 Bft) NO 52 0 min 0,000 mm 1,0 UV-I 191 W/m 15,1 C 16,6 C 0,0 km/h (0 Bft) 0,00 %
27.06.2015 16:55 16,6 C 91 % 1015,3 hPa 0,0 l/m 0,0 km/h (0 Bft) O-NO 77 0 min 0,000 mm 1,0 UV-I 196 W/m 15,1 C 16,6 C 0,0 km/h (0 Bft) 0,00 %
27.06.2015 17:00 16,7 C 90 % 1015,4 hPa 0,0 l/m 0,0 km/h (0 Bft) N-NO 31 0 min 0,000 mm 1,0 UV-I 211 W/m 15,0 C 16,7 C 0,0 km/h (0 Bft) 0,00 %
27.06.2015 17:05 16,7 C 90 % 1015,4 hPa 0,0 l/m 0,4 km/h (0 Bft) N 353 0 min 0,000 mm 1,0 UV-I 231 W/m 15,0 C 16,7 C 4,0 km/h (1 Bft) 0,00 %
27.06.2015 17:10 16,8 C 90 % 1015,6 hPa 0,0 l/m 0,0 km/h (0 Bft) O-NO 62 0 min 0,000 mm 1,0 UV-I 240 W/m 15,1 C 16,8 C 0,0 km/h (0 Bft) 0,00 %
27.06.2015 17:15 16,8 C 89 % 1015,5 hPa 0,0 l/m 0,0 km/h (0 Bft) NO 44 0 min 0,000 mm 1,0 UV-I 248 W/m 15,0 C 16,8 C 0,0 km/h (0 Bft) 0,00 %
27.06.2015 17:20 16,8 C 88 % 1015,4 hPa 0,0 l/m 0,0 km/h (0 Bft) O-NO 57 0 min 0,000 mm 1,0 UV-I 251 W/m 14,8 C 16,8 C 0,0 km/h (0 Bft) 0,00 %
27.06.2015 17:25 16,8 C 86 % 1015,4 hPa 0,0 l/m 0,0 km/h (0 Bft) O-NO 66 0 min 0,000 mm 1,0 UV-I 250 W/m 14,4 C 16,8 C 0,0 km/h (0 Bft) 0,00 %
27.06.2015 17:30 17,1 C 85 % 1015,1 hPa 0,0 l/m 0,0 km/h (0 Bft) NO 54 0 min 0,000 mm 1,0 UV-I 248 W/m 14,6 C 17,1 C 0,0 km/h (0 Bft) 0,00 %
27.06.2015 17:35 17,3 C 84 % 1015,0 hPa 0,0 l/m 0,0 km/h (0 Bft) O-NO 63 0 min 0,000 mm 1,0 UV-I 240 W/m 14,6 C 17,3 C 0,0 km/h (0 Bft) 0,00 %
27.06.2015 17:40 17,6 C 83 % 1015,1 hPa 0,0 l/m 0,0 km/h (0 Bft) NO 48 0 min 0,000 mm 1,0 UV-I 231 W/m 14,7 C 17,6 C 0,0 km/h (0 Bft) 0,00 %
27.06.2015 17:45 17,7 C 81 % 1014,9 hPa 0,0 l/m 0,0 km/h (0 Bft) NO 45 0 min 0,000 mm 1,0 UV-I 240 W/m 14,4 C 17,7 C 0,0 km/h (0 Bft) 0,00 %
27.06.2015 17:50 17,7 C 81 % 1014,9 hPa 0,0 l/m 0,0 km/h (0 Bft) NO 46 0 min 0,000 mm 1,0 UV-I 240 W/m 14,4 C 17,7 C 0,0 km/h (0 Bft) 0,00 %
27.06.2015 17:55 17,5 C 80 % 1014,9 hPa 0,0 l/m 0,0 km/h (0 Bft) O-NO 67 0 min 0,000 mm 1,0 UV-I 221 W/m 14,0 C 17,5 C 0,0 km/h (0 Bft) 0,00 %
27.06.2015 18:00 17,6 C 82 % 1015,1 hPa 0,0 l/m 0,0 km/h (0 Bft) NO 52 0 min 0,000 mm 1,0 UV-I 189 W/m 14,5 C 17,6 C 0,0 km/h (0 Bft) 0,00 %
27.06.2015 18:05 17,7 C 82 % 1014,9 hPa 0,0 l/m 0,0 km/h (0 Bft) O 84 0 min 0,000 mm 1,0 UV-I 145 W/m 14,6 C 17,7 C 0,0 km/h (0 Bft) 0,00 %
27.06.2015 18:10 17,8 C 81 % 1015,0 hPa 0,0 l/m 0,0 km/h (0 Bft) O-NO 69 0 min 0,000 mm 1,0 UV-I 109 W/m 14,5 C 17,8 C 0,0 km/h (0 Bft) 0,00 %
27.06.2015 18:15 17,8 C 82 % 1015,2 hPa 0,0 l/m 0,0 km/h (0 Bft) N-NO 28 0 min 0,000 mm 1,0 UV-I 96 W/m 14,7 C 17,8 C 0,0 km/h (0 Bft) 0,00 %
27.06.2015 18:20 17,7 C 82 % 1015,4 hPa 0,0 l/m 0,4 km/h (0 Bft) N-NO 33 0 min 0,000 mm 1,0 UV-I 91 W/m 14,6 C 17,7 C 4,0 km/h (1 Bft) 0,00 %
27.06.2015 18:25 17,5 C 84 % 1015,4 hPa 0,0 l/m 0,0 km/h (0 Bft) NO 36 0 min 0,000 mm 1,0 UV-I 78 W/m 14,8 C 17,5 C 0,0 km/h (0 Bft) 0,00 %
27.06.2015 18:30 17,3 C 84 % 1015,4 hPa 0,0 l/m 0,0 km/h (0 Bft) NO 36 0 min 0,000 mm 0,0 UV-I 89 W/m 14,6 C 17,3 C 0,0 km/h (0 Bft) 0,00 %
27.06.2015 18:35 17,2 C 85 % 1015,6 hPa 0,0 l/m 0,0 km/h (0 Bft) N-NO 29 0 min 0,000 mm 0,0 UV-I 123 W/m 14,7 C 17,2 C 0,0 km/h (0 Bft) 0,00 %
27.06.2015 18:40 17,0 C 84 % 1015,6 hPa 0,0 l/m 0,0 km/h (0 Bft) N-NO 29 0 min 0,000 mm 1,0 UV-I 170 W/m 14,3 C 17,0 C 0,0 km/h (0 Bft) 0,00 %
27.06.2015 18:45 16,9 C 85 % 1015,5 hPa 0,0 l/m 0,0 km/h (0 Bft) N-NO 28 5 min 0,000 mm 1,0 UV-I 236 W/m 14,4 C 16,9 C 0,0 km/h (0 Bft) 0,00 %
27.06.2015 18:50 17,0 C 85 % 1015,5 hPa 0,0 l/m 0,0 km/h (0 Bft) N-NO 30 0 min 0,000 mm 1,0 UV-I 156 W/m 14,5 C 17,0 C 0,0 km/h (0 Bft) 0,00 %
27.06.2015 18:55 17,1 C 85 % 1015,1 hPa 0,0 l/m 0,0 km/h (0 Bft) N-NO 29 0 min 0,000 mm 1,0 UV-I 130 W/m 14,6 C 17,1 C 0,0 km/h (0 Bft) 0,00 %
27.06.2015 19:00 17,3 C 83 % 1015,1 hPa 0,0 l/m 0,0 km/h (0 Bft) N-NO 15 0 min 0,000 mm 1,0 UV-I 146 W/m 14,4 C 17,3 C 0,0 km/h (0 Bft) 0,00 %
27.06.2015 19:05 17,4 C 83 % 1015,1 hPa 0,0 l/m 0,0 km/h (0 Bft) N 7 5 min 0,000 mm 1,0 UV-I 181 W/m 14,5 C 17,4 C 0,0 km/h (0 Bft) 0,00 %
27.06.2015 19:10 17,5 C 82 % 1015,2 hPa 0,0 l/m 0,0 km/h (0 Bft) N-NO 33 5 min 0,000 mm 1,0 UV-I 221 W/m 14,4 C 17,5 C 0,0 km/h (0 Bft) 0,00 %
27.06.2015 19:15 17,5 C 82 % 1015,1 hPa 0,0 l/m 0,0 km/h (0 Bft) NO 36 0 min 0,000 mm 1,0 UV-I 133 W/m 14,4 C 17,5 C 0,0 km/h (0 Bft) 0,00 %
27.06.2015 19:20 17,6 C 82 % 1015,3 hPa 0,0 l/m 0,0 km/h (0 Bft) NO 36 5 min 0,000 mm 1,0 UV-I 204 W/m 14,5 C 17,6 C 0,0 km/h (0 Bft) 0,00 %
27.06.2015 19:25 17,6 C 83 % 1015,3 hPa 0,0 l/m 0,0 km/h (0 Bft) NO 38 5 min 0,000 mm 1,0 UV-I 328 W/m 14,7 C 17,6 C 0,0 km/h (0 Bft) 0,00 %
27.06.2015 19:30 17,6 C 83 % 1015,5 hPa 0,0 l/m 0,0 km/h (0 Bft) NO 45 5 min 0,000 mm 1,0 UV-I 298 W/m 14,7 C 17,6 C 0,0 km/h (0 Bft) 0,00 %
27.06.2015 19:35 17,6 C 83 % 1015,7 hPa 0,0 l/m 0,0 km/h (0 Bft) NO 44 5 min 0,000 mm 1,0 UV-I 281 W/m 14,7 C 17,6 C 0,0 km/h (0 Bft) 0,00 %
27.06.2015 19:40 17,6 C 83 % 1015,7 hPa 0,0 l/m 0,0 km/h (0 Bft) NO 45 5 min 0,000 mm 1,0 UV-I 274 W/m 14,7 C 17,6 C 0,0 km/h (0 Bft) 0,00 %
27.06.2015 19:45 17,7 C 83 % 1015,7 hPa 0,0 l/m 0,0 km/h (0 Bft) O-NO 63 5 min 0,000 mm 1,0 UV-I 238 W/m 14,8 C 17,7 C 0,0 km/h (0 Bft) 0,00 %
27.06.2015 19:50 17,8 C 83 % 1015,8 hPa 0,0 l/m 0,0 km/h (0 Bft) NO 54 5 min 0,000 mm 0,0 UV-I 194 W/m 14,9 C 17,8 C 0,0 km/h (0 Bft) 0,00 %
27.06.2015 19:55 17,9 C 83 % 1015,7 hPa 0,0 l/m 0,0 km/h (0 Bft) O-NO 69 0 min 0,000 mm 0,0 UV-I 73 W/m 15,0 C 17,9 C 0,0 km/h (0 Bft) 0,00 %
27.06.2015 20:00 18,0 C 83 % 1015,8 hPa 0,0 l/m 0,0 km/h (0 Bft) O-NO 69 0 min 0,000 mm 0,0 UV-I 52 W/m 15,1 C 18,0 C 0,0 km/h (0 Bft) 0,00 %
27.06.2015 20:05 18,0 C 83 % 1015,9 hPa 0,0 l/m 0,0 km/h (0 Bft) NO 55 0 min 0,000 mm 0,0 UV-I 64 W/m 15,1 C 18,0 C 0,0 km/h (0 Bft) 0,00 %
27.06.2015 20:10 17,6 C 85 % 1016,1 hPa 0,0 l/m 0,0 km/h (0 Bft) NO 53 0 min 0,000 mm 0,0 UV-I 48 W/m 15,0 C 17,6 C 0,0 km/h (0 Bft) 0,00 %
27.06.2015 20:15 17,2 C 86 % 1016,4 hPa 0,0 l/m 0,0 km/h (0 Bft) NO 53 0 min 0,000 mm 0,0 UV-I 41 W/m 14,8 C 17,2 C 0,0 km/h (0 Bft) 0,00 %
27.06.2015 20:20 16,9 C 87 % 1016,3 hPa 0,0 l/m 0,0 km/h (0 Bft) NO 53 0 min 0,000 mm 0,0 UV-I 20 W/m 14,7 C 16,9 C 0,0 km/h (0 Bft) 0,00 %
27.06.2015 20:25 16,7 C 88 % 1016,3 hPa 0,0 l/m 0,0 km/h (0 Bft) NO 55 0 min 0,000 mm 0,0 UV-I 12 W/m 14,7 C 16,7 C 0,0 km/h (0 Bft) 0,00 %
27.06.2015 20:30 16,5 C 89 % 1016,4 hPa 0,0 l/m 0,0 km/h (0 Bft) O-NO 57 0 min 0,000 mm 0,0 UV-I 8 W/m 14,7 C 16,5 C 0,0 km/h (0 Bft) 0,00 %
27.06.2015 20:35 16,3 C 89 % 1016,5 hPa 0,0 l/m 0,0 km/h (0 Bft) O-NO 64 0 min 0,000 mm 0,0 UV-I 5 W/m 14,5 C 16,3 C 0,0 km/h (0 Bft) 0,00 %
27.06.2015 20:40 16,1 C 90 % 1016,5 hPa 0,0 l/m 0,0 km/h (0 Bft) O-NO 64 0 min 0,000 mm 0,0 UV-I 3 W/m 14,5 C 16,1 C 0,0 km/h (0 Bft) 0,00 %
27.06.2015 20:45 15,9 C 90 % 1016,7 hPa 0,0 l/m 0,0 km/h (0 Bft) O-NO 64 0 min 0,000 mm 0,0 UV-I 1 W/m 14,3 C 15,9 C 0,0 km/h (0 Bft) 0,00 %
27.06.2015 20:50 15,8 C 91 % 1016,7 hPa 0,0 l/m 0,0 km/h (0 Bft) O 90 0 min 0,000 mm 0,0 UV-I 0 W/m 14,3 C 15,8 C 0,0 km/h (0 Bft) 0,00 %
27.06.2015 20:55 15,6 C 91 % 1016,9 hPa 0,0 l/m 0,0 km/h (0 Bft) NO 51 0 min 0,000 mm 0,0 UV-I 0 W/m 14,1 C 15,6 C 0,0 km/h (0 Bft) 0,00 %
27.06.2015 21:00 15,5 C 93 % 1017,2 hPa 0,0 l/m 0,0 km/h (0 Bft) NO 56 0 min 0,000 mm 0,0 UV-I 0 W/m 14,4 C 15,5 C 0,0 km/h (0 Bft) 0,00 %
27.06.2015 21:05 15,4 C 93 % 1017,1 hPa 0,0 l/m 0,0 km/h (0 Bft) NO 39 0 min 0,000 mm 0,0 UV-I 0 W/m 14,3 C 15,4 C 0,0 km/h (0 Bft) 0,00 %
27.06.2015 21:10 15,4 C 94 % 1017,8 hPa 0,0 l/m 0,0 km/h (0 Bft) NO 47 0 min 0,000 mm 0,0 UV-I 0 W/m 14,4 C 15,4 C 0,0 km/h (0 Bft) 0,00 %
27.06.2015 21:15 15,3 C 94 % 1018,3 hPa 0,0 l/m 0,0 km/h (0 Bft) NO 36 0 min 0,000 mm 0,0 UV-I 0 W/m 14,3 C 15,3 C 0,0 km/h (0 Bft) 0,00 %
27.06.2015 21:20 15,2 C 94 % 1019,0 hPa 0,0 l/m 0,0 km/h (0 Bft) NO 45 0 min 0,000 mm 0,0 UV-I 0 W/m 14,2 C 15,2 C 0,0 km/h (0 Bft) 0,00 %
27.06.2015 21:25 15,2 C 94 % 1019,1 hPa 0,0 l/m 0,0 km/h (0 Bft) NO 48 0 min 0,000 mm 0,0 UV-I 0 W/m 14,2 C 15,2 C 0,0 km/h (0 Bft) 0,00 %
27.06.2015 21:30 15,0 C 94 % 1019,2 hPa 0,0 l/m 0,0 km/h (0 Bft) NO 41 0 min 0,000 mm 0,0 UV-I 0 W/m 14,0 C 15,0 C 0,0 km/h (0 Bft) 0,00 %
27.06.2015 21:35 15,0 C 94 % 1019,4 hPa 0,0 l/m 0,0 km/h (0 Bft) NO 42 0 min 0,000 mm 0,0 UV-I 0 W/m 14,0 C 15,0 C 0,0 km/h (0 Bft) 0,00 %
27.06.2015 21:40 15,0 C 94 % 1019,4 hPa 0,0 l/m 0,0 km/h (0 Bft) NO 42 0 min 0,000 mm 0,0 UV-I 0 W/m 14,0 C 15,0 C 0,0 km/h (0 Bft) 0,00 %
27.06.2015 21:45 15,0 C 95 % 1019,3 hPa 0,0 l/m 0,0 km/h (0 Bft) NO 43 0 min 0,000 mm 0,0 UV-I 0 W/m 14,2 C 15,0 C 0,0 km/h (0 Bft) 0,00 %
27.06.2015 21:50 15,0 C 95 % 1019,3 hPa 0,0 l/m 0,0 km/h (0 Bft) NO 41 0 min 0,000 mm 0,0 UV-I 0 W/m 14,2 C 15,0 C 0,0 km/h (0 Bft) 0,00 %
27.06.2015 21:55 15,1 C 95 % 1019,3 hPa 0,0 l/m 0,0 km/h (0 Bft) NO 43 0 min 0,000 mm 0,0 UV-I 0 W/m 14,3 C 15,1 C 0,0 km/h (0 Bft) 0,00 %
27.06.2015 22:00 15,1 C 95 % 1019,2 hPa 0,0 l/m 0,0 km/h (0 Bft) NO 34 0 min 0,000 mm 0,0 UV-I 0 W/m 14,3 C 15,1 C 0,0 km/h (0 Bft) 0,00 %
27.06.2015 22:05 15,1 C 95 % 1018,9 hPa 0,0 l/m 0,0 km/h (0 Bft) NO 37 0 min 0,000 mm 0,0 UV-I 0 W/m 14,3 C 15,1 C 0,0 km/h (0 Bft) 0,00 %
27.06.2015 22:10 15,1 C 95 % 1018,9 hPa 0,0 l/m 0,0 km/h (0 Bft) NO 40 0 min 0,000 mm 0,0 UV-I 0 W/m 14,3 C 15,1 C 0,0 km/h (0 Bft) 0,00 %
27.06.2015 22:15 15,2 C 95 % 1018,9 hPa 0,0 l/m 0,0 km/h (0 Bft) N-NO 12 0 min 0,000 mm 0,0 UV-I 0 W/m 14,4 C 15,2 C 0,0 km/h (0 Bft) 0,00 %
27.06.2015 22:20 15,2 C 95 % 1019,0 hPa 0,0 l/m 0,0 km/h (0 Bft) NO 36 0 min 0,000 mm 0,0 UV-I 0 W/m 14,4 C 15,2 C 0,0 km/h (0 Bft) 0,00 %
27.06.2015 22:25 15,2 C 95 % 1019,2 hPa 0,0 l/m 0,0 km/h (0 Bft) N-NO 29 0 min 0,000 mm 0,0 UV-I 0 W/m 14,4 C 15,2 C 0,0 km/h (0 Bft) 0,00 %
27.06.2015 22:30 15,2 C 95 % 1019,3 hPa 0,0 l/m 0,0 km/h (0 Bft) NO 36 0 min 0,000 mm 0,0 UV-I 0 W/m 14,4 C 15,2 C 0,0 km/h (0 Bft) 0,00 %
27.06.2015 22:35 15,1 C 95 % 1019,5 hPa 0,0 l/m 0,0 km/h (0 Bft) NO 36 0 min 0,000 mm 0,0 UV-I 0 W/m 14,3 C 15,1 C 0,0 km/h (0 Bft) 0,00 %
27.06.2015 22:40 15,0 C 95 % 1019,3 hPa 0,0 l/m 0,0 km/h (0 Bft) NO 36 0 min 0,000 mm 0,0 UV-I 0 W/m 14,2 C 15,0 C 0,0 km/h (0 Bft) 0,00 %
27.06.2015 22:45 15,0 C 95 % 1019,1 hPa 0,0 l/m 0,0 km/h (0 Bft) NO 40 0 min 0,000 mm 0,0 UV-I 0 W/m 14,2 C 15,0 C 0,0 km/h (0 Bft) 0,00 %
27.06.2015 22:50 15,0 C 95 % 1019,3 hPa 0,0 l/m 0,0 km/h (0 Bft) O-NO 58 0 min 0,000 mm 0,0 UV-I 0 W/m 14,2 C 15,0 C 0,0 km/h (0 Bft) 0,00 %
27.06.2015 22:55 14,9 C 95 % 1019,2 hPa 0,0 l/m 0,0 km/h (0 Bft) N-NO 27 0 min 0,000 mm 0,0 UV-I 0 W/m 14,1 C 14,9 C 0,0 km/h (0 Bft) 0,00 %
27.06.2015 23:00 15,0 C 95 % 1019,3 hPa 0,0 l/m 0,0 km/h (0 Bft) W-NW 293 0 min 0,000 mm 0,0 UV-I 0 W/m 14,2 C 15,0 C 0,0 km/h (0 Bft) 0,00 %
27.06.2015 23:05 14,9 C 95 % 1019,2 hPa 0,0 l/m 0,0 km/h (0 Bft) NO 38 0 min 0,000 mm 0,0 UV-I 0 W/m 14,1 C 14,9 C 0,0 km/h (0 Bft) 0,00 %
27.06.2015 23:10 14,9 C 95 % 1018,1 hPa 0,3 l/m 0,0 km/h (0 Bft) O 85 0 min 0,000 mm 0,0 UV-I 0 W/m 14,1 C 14,9 C 0,0 km/h (0 Bft) 0,00 %
27.06.2015 23:15 14,9 C 95 % 1018,1 hPa 0,0 l/m 0,0 km/h (0 Bft) N-NW 338 0 min 0,000 mm 0,0 UV-I 0 W/m 14,1 C 14,9 C 0,0 km/h (0 Bft) 0,00 %
27.06.2015 23:20 15,0 C 96 % 1018,6 hPa 0,0 l/m 0,4 km/h (0 Bft) NW 317 0 min 0,000 mm 0,0 UV-I 0 W/m 14,4 C 15,0 C 4,0 km/h (1 Bft) 0,00 %
27.06.2015 23:25 14,9 C 95 % 1018,7 hPa 0,6 l/m 0,0 km/h (0 Bft) N-NW 334 0 min 0,000 mm 0,0 UV-I 0 W/m 14,1 C 14,9 C 0,0 km/h (0 Bft) 0,00 %
27.06.2015 23:30 14,9 C 95 % 1018,7 hPa 0,0 l/m 1,8 km/h (1 Bft) W 273 0 min 0,000 mm 0,0 UV-I 0 W/m 14,1 C 14,9 C 4,0 km/h (1 Bft) 0,00 %
27.06.2015 23:35 14,7 C 95 % 1018,4 hPa 0,0 l/m 2,2 km/h (1 Bft) W-NW 282 0 min 0,000 mm 0,0 UV-I 0 W/m 13,9 C 14,7 C 4,0 km/h (1 Bft) 0,00 %
27.06.2015 23:40 14,3 C 92 % 1018,6 hPa 0,0 l/m 0,0 km/h (0 Bft) N 355 0 min 0,000 mm 0,0 UV-I 0 W/m 13,0 C 14,3 C 0,0 km/h (0 Bft) 0,00 %
27.06.2015 23:45 14,0 C 90 % 1018,1 hPa 0,3 l/m 0,4 km/h (0 Bft) N 353 0 min 0,000 mm 0,0 UV-I 0 W/m 12,4 C 14,0 C 4,0 km/h (1 Bft) 0,00 %
27.06.2015 23:50 13,6 C 88 % 1018,2 hPa 0,0 l/m 0,0 km/h (0 Bft) NW 319 0 min 0,000 mm 0,0 UV-I 0 W/m 11,6 C 13,6 C 0,0 km/h (0 Bft) 0,00 %
_ Min-Zeit 23:50 14:00 17:45 - 00:00 - - - - - - 03:55 23:50 00:00 00:00
Minimum _ 13,6 C 46 % 1014,9 hPa - 0,0 km/h (0 Bft) - - - - - - 10,7 C 13,6 C 0,0 km/h (0 Bft) 0,00 %
_ Max-Zeit 14:25 23:20 22:35 15:15 15:05 - - 13:15 00:00 14:15 14:15 15:05 14:25 15:05 00:00
Maximum _ 24,5 C 96 % 1019,5 hPa 0,6 l/m 11,5 km/h
W-NW (2 Bft)
- - 5 min 0,000 mm 5,0 UV-I 808 W/m 15,8 C 24,5 C 15,8 km/h
W-NW (3 Bft)
0,00 %
Durchschnitt _ 17,5 C 76 % 1016,7 hPa #5,1 l/m 0,2 km/h (0 Bft) W - #2:00 h #0,000 mm 1,5 UV-I 206 W/m 13,1 C 17,5 C 0,5 km/h (0 Bft) 0,00 %